Location: Franzen
(48.6167°N, 15.3833°E)
Time: 09:30:43
(UTC+00:00)

SL-16 R/B - Pass Details

Date: 22 April 2021
Orbit: 840 x 849 km, 71.0° (Epoch: 16 May)

Event Time Altitude Azimuth Distance (km) Brightness Sun altitude
Rises 21:16:12 0° 322° (NW) 3,421 6.7 -24.9°
Reaches altitude 10° 21:19:05 10° 310° (NW) 2,480 5.5 -25.2°
Maximum altitude 21:23:31 24° 258° (WSW) 1,680 3.8 -25.5°
Enters shadow 21:25:13 21° 232° (SW) 1,813 3.8 -25.6°
